Orbital Elements at Epoch 2459000.5 (2020-May-31.0) TDB
Reference: JPL 27 (heliocentric ecliptic J2000)
Element | Value | Uncertainty (1-sigma) | Units |
e | .159362692938444 | 5.009e-08 | |
a | 2.300593161105011 | 7.4089e-09 | au |
q | 1.933964439595549 | 1.1477e-07 | au |
i | 7.096650795969211 | 7.0813e-06 | deg |
node | 42.80941962560257 | 2.8792e-05 | deg |
peri | 288.1050594208817 | 3.6214e-05 | deg |
M | 109.4785822372002 | 2.2469e-05 | deg |
tp | 2458612.899054867621 (2019-May-09.39905487) | 7.9301e-05 | TDB |
period | 1274.553774776988 3.49 | 6.1569e-06 1.686e-08 | d yr |
n | .2824517938154396 | 1.3644e-09 | deg/d |
Q | 2.667221882614473 | 8.5896e-09 | au |
|
| | Orbit Determination Parameters
Additional Information
|